Volver al catálogo

INTELSAT 3-F8

ActivoComunicacionesMEO
NORAD 4478·PAYLOAD· XX

Lanzado Jul 23, 1970 desde Cape Canaveral Space Force Station

Loading…

Próximos Pases (próximas 24 horas)

TLE

ActualizadoSource: Space-Track

Época: Sep 14, 2026, 15:23 UTC

1 04478U 70055A   26257.64154830 -.00000320  00000-0  00000-0 0  9999
2 04478   5.6743  68.2907 0319946 119.8259 307.3627  1.02266240123747

Sigue INTELSAT 3-F8 en tiempo real con AllMySat

Download on the App Store